EA5LR-10 Weather Reports


time (UTC)temp
C
wind
direction
speed
KPH
gust
KPH
rain 1hr
cm
rain 24hr
cm
rain mn
cm
humidity
%
barometer
mb
20260508100734 16 268 3.2 3.2 0.00 0.00 20.98 81 1015.7
20260508100234 16 274 0.0 0.0 0.00 0.00 20.98 83 1015.8
20260508095729 16 274 1.6 1.6 0.00 0.00 20.98 83 1015.7
20260508095229 16 300 3.2 4.8 0.00 0.00 20.98 84 1015.8
20260508094531 16 295 4.8 4.8 0.00 0.00 20.98 84 1015.8
20260508093824 16 274 3.2 4.8 0.00 0.00 20.98 84 1016.0
20260508092840 16 291 3.2 4.8 0.00 0.00 20.98 84 1015.8
20260508092340 16 296 4.8 11.3 0.00 0.00 20.98 82 1015.9
20260508091722 16 294 3.2 3.2 0.00 0.00 20.98 83 1015.8
20260508091222 16 263 3.2 4.8 0.00 0.00 20.98 83 1015.6
20260508090722 16 283 1.6 1.6 0.00 0.00 20.98 83 1015.6
20260508085813 16 255 1.6 3.2 0.00 0.00 20.98 83 1015.4
20260508085112 16 289 1.6 1.6 0.00 0.00 20.98 84 1015.6
20260508084612 16 285 1.6 3.2 0.00 0.00 20.98 84 1015.5
20260508084112 16 286 1.6 1.6 0.00 0.00 20.98 84 1015.1
20260508083612 16 299 4.8 8.0 0.00 0.00 20.98 84 1015.2
20260508083112 16 285 1.6 1.6 0.00 0.00 20.98 84 1015.2
20260508082612 16 299 1.6 1.6 0.00 0.00 20.98 84 1015.1
20260508082112 16 288 3.2 3.2 0.00 0.00 20.98 84 1015.1
20260508081612 16 288 0.0 0.0 0.00 0.00 20.98 85 1015.3
20260508080546 15 295 3.2 3.2 0.00 0.00 20.98 85 1015.4
20260508075713 16 326 6.4 8.0 0.00 0.00 20.98 86 1014.9
20260508075213 16 285 3.2 4.8 0.00 0.00 20.98 86 1014.8
20260508074622 16 295 3.2 3.2 0.00 0.00 20.98 86 1014.7
20260508074122 16 281 6.4 9.7 0.00 0.00 20.98 85 1014.6
20260508073148 16 304 3.2 4.8 0.00 0.00 20.98 85 1014.2
20260508072648 16 314 1.6 1.6 0.00 0.00 20.98 85 1014.3
20260508072148 16 298 4.8 4.8 0.00 0.00 20.98 85 1014.3
20260508071648 16 272 4.8 8.0 0.00 0.00 20.98 85 1014.2
20260508071148 16 330 1.6 3.2 0.00 0.00 20.98 86 1014.2
20260508070648 16 294 4.8 4.8 0.00 0.00 20.98 86 1014.3
20260508070148 15 284 3.2 4.8 0.00 0.00 20.98 86 1014.2
20260508065648 15 281 3.2 3.2 0.00 0.00 20.98 86 1014.3
20260508065148 15 304 4.8 4.8 0.00 0.00 20.98 86 1014.2
20260508064648 15 286 1.6 3.2 0.00 0.00 20.98 86 1014.1
20260508064148 15 249 3.2 4.8 0.00 0.00 20.98 86 1014.2
20260508063648 15 298 6.4 8.0 0.00 0.00 20.98 87 1014.0
20260508063148 15 344 0.0 1.6 0.00 0.00 20.98 88 1014.2
20260508062648 15 296 1.6 3.2 0.00 0.00 20.98 88 1014.0
20260508062148 15 293 1.6 1.6 0.00 0.00 20.98 89 1014.0
20260508061648 15 303 3.2 4.8 0.00 0.00 20.98 89 1013.9
20260508061148 15 299 4.8 8.0 0.00 0.00 20.98 90 1013.8
20260508060648 15 302 3.2 4.8 0.00 0.00 20.98 90 1013.9
20260508060148 15 297 4.8 4.8 0.00 0.00 20.98 90 1013.6
20260508055648 15 325 1.6 3.2 0.00 0.00 20.98 90 1013.6
20260508055148 14 304 3.2 3.2 0.00 0.00 20.98 90 1013.7
20260508054648 14 295 3.2 4.8 0.00 0.00 20.98 90 1013.5
20260508054148 14 282 3.2 3.2 0.00 0.00 20.98 90 1013.5
20260508053648 14 295 4.8 8.0 0.00 0.00 20.98 90 1013.3
20260508053148 14 314 3.2 4.8 0.00 0.00 20.98 90 1013.5
20260508052648 14 279 3.2 3.2 0.00 0.00 20.98 90 1013.5
20260508052148 14 319 8.0 12.9 0.00 0.00 20.98 90 1013.7
20260508051648 14 335 3.2 4.8 0.00 0.00 20.98 91 1013.5
20260508051148 14 330 4.8 4.8 0.00 0.00 20.98 91 1013.4
20260508050648 14 308 3.2 4.8 0.00 0.00 20.98 91 1013.3
20260508050148 14 317 3.2 4.8 0.00 0.00 20.98 91 1013.2
20260508045648 14 335 3.2 4.8 0.00 0.00 20.98 91 1013.1
20260508045148 14 270 3.2 4.8 0.00 0.00 20.98 91 1013.0
20260508044648 14 324 4.8 8.0 0.00 0.00 20.98 91 1013.3
20260508044148 14 289 3.2 3.2 0.00 0.00 20.98 91 1013.0
20260508043648 14 286 3.2 3.2 0.00 0.00 20.98 91 1013.1
20260508043148 14 303 3.2 3.2 0.00 0.00 20.98 91 1013.0
20260508042648 14 292 1.6 3.2 0.00 0.00 20.98 92 1013.0
20260508042148 14 299 3.2 3.2 0.00 0.00 20.98 92 1013.0
20260508041648 14 285 3.2 3.2 0.00 0.00 20.98 92 1013.0
20260508041148 14 300 1.6 3.2 0.00 0.00 20.98 92 1013.2
20260508040648 14 305 1.6 3.2 0.00 0.00 20.98 92 1013.0
20260508040148 14 305 1.6 3.2 0.00 0.00 20.98 92 1013.0
20260508035148 14 326 3.2 3.2 0.00 0.00 20.98 92 1012.7
20260508034648 14 292 3.2 3.2 0.00 0.00 20.98 92 1012.8
20260508034148 14 314 1.6 1.6 0.00 0.00 20.98 92 1012.7
20260508033648 14 310 3.2 4.8 0.00 0.00 20.98 92 1012.7
20260508033148 14 306 3.2 3.2 0.00 0.00 20.98 92 1012.9
20260508032648 14 323 1.6 1.6 0.00 0.00 20.98 92 1012.8
20260508032147 14 292 3.2 4.8 0.00 0.00 20.98 92 1012.9
20260508031648 14 287 3.2 3.2 0.00 0.00 20.98 93 1012.9
20260508031148 14 321 3.2 3.2 0.00 0.00 20.98 93 1013.0
20260508030647 14 319 3.2 3.2 0.00 0.00 20.98 93 1013.1
20260508030148 14 272 3.2 3.2 0.00 0.00 20.98 93 1013.3
20260508025648 14 286 3.2 4.8 0.00 0.00 20.98 93 1013.3
20260508025147 14 317 1.6 3.2 0.00 0.00 20.98 93 1013.5
20260508024647 14 315 1.6 3.2 0.00 0.00 20.98 93 1013.2
20260508024148 14 275 3.2 3.2 0.00 0.00 20.98 93 1013.2
20260508023648 14 285 3.2 3.2 0.00 0.00 20.98 93 1013.3
20260508023147 14 276 3.2 3.2 0.00 0.00 20.98 93 1013.2
20260508022647 14 277 4.8 9.7 0.00 0.00 20.98 93 1013.3
20260508021648 14 265 3.2 4.8 0.00 0.00 20.98 93 1013.5
20260508021148 14 274 3.2 3.2 0.00 0.00 20.98 93 1013.4
20260508020648 14 270 4.8 4.8 0.00 0.00 20.98 93 1013.5
20260508020149 14 293 3.2 4.8 0.00 0.00 20.98 93 1013.4
20260508015648 14 280 4.8 8.0 0.00 0.00 20.98 93 1013.5
20260508015148 14 316 3.2 4.8 0.00 0.00 20.98 93 1013.5
20260508014648 14 291 3.2 4.8 0.00 0.00 20.98 93 1013.5
20260508014148 14 297 4.8 4.8 0.00 0.00 20.98 93 1013.5
20260508013648 14 299 0.0 0.0 0.00 0.00 20.98 93 1013.6
20260508013148 14 300 1.6 1.6 0.00 0.00 20.98 93 1013.6
20260508012647 14 300 3.2 3.2 0.00 0.00 20.98 93 1013.8
20260508012148 14 301 3.2 4.8 0.00 0.00 20.98 93 1013.8
20260508011647 14 301 1.6 1.6 0.00 0.00 20.98 93 1013.8
20260508011148 14 301 3.2 3.2 0.00 0.00 20.98 93 1013.9
20260508010647 14 301 3.2 3.2 0.00 0.00 20.98 93 1013.9
20260508010147 14 301 1.6 3.2 0.00 0.00 20.98 93 1014.0
20260508005648 14 301 1.6 3.2 0.00 0.00 20.98 93 1014.0
20260508005148 14 301 1.6 1.6 0.00 0.00 20.98 93 1014.1
20260508004647 14 301 1.6 1.6 0.00 0.00 20.98 93 1014.3
20260508004147 15 301 1.6 1.6 0.00 0.00 20.98 92 1014.2
20260508003647 15 301 1.6 1.6 0.00 0.00 20.98 92 1014.3
20260508003147 15 301 3.2 3.2 0.00 0.00 20.98 92 1014.4
20260508002647 15 301 1.6 3.2 0.00 0.00 20.98 92 1014.5
20260508002147 15 301 3.2 3.2 0.00 0.00 20.98 92 1014.5
20260508001647 15 301 1.6 1.6 0.00 0.00 20.98 92 1014.7
20260508001147 15 301 1.6 3.2 0.00 0.00 20.98 92 1014.8
20260508000647 15 301 3.2 4.8 0.00 0.00 20.98 92 1014.7
20260508000147 15 301 1.6 3.2 0.00 0.00 20.98 92 1014.7
20260507235647 15 302 1.6 1.6 0.00 0.00 20.98 92 1014.7
20260507235147 15 301 3.2 4.8 0.00 0.00 20.98 92 1014.7
20260507234647 15 301 3.2 3.2 0.00 0.00 20.98 91 1015.0
20260507234147 15 301 0.0 0.0 0.00 0.00 20.98 91 1015.1
20260507233647 15 302 1.6 1.6 0.00 0.00 20.98 91 1015.0
20260507233147 15 302 3.2 4.8 0.00 0.00 20.98 91 1014.8
20260507232647 15 337 1.6 3.2 0.00 0.00 20.98 91 1014.8
20260507232147 15 298 1.6 1.6 0.00 0.00 20.98 91 1014.8
20260507231647 15 298 1.6 1.6 0.00 0.00 20.98 90 1015.1
20260507231147 15 298 3.2 3.2 0.00 0.00 20.98 90 1015.1
20260507230647 15 298 0.0 0.0 0.00 0.00 20.98 90 1015.3
20260507230147 15 299 3.2 3.2 0.00 0.00 20.98 89 1015.2
20260507225647 15 299 3.2 3.2 0.00 0.00 20.98 88 1015.0
20260507225147 15 299 3.2 3.2 0.00 0.00 20.98 87 1015.1
20260507224647 15 299 0.0 0.0 0.00 0.00 20.98 86 1015.0
20260507224147 16 299 3.2 4.8 0.00 0.00 20.98 84 1014.9
20260507223647 16 46 0.0 1.6 0.00 0.00 20.98 81 1014.9
20260507223147 16 48 0.0 0.0 0.00 0.00 20.98 81 1014.9
20260507222647 16 49 1.6 1.6 0.00 0.00 20.98 81 1015.1
20260507222147 16 54 1.6 3.2 0.00 0.00 20.98 81 1015.0
20260507221647 16 50 1.6 1.6 0.00 0.00 20.98 82 1014.7
20260507221147 16 64 1.6 1.6 0.00 0.00 20.98 82 1014.5
20260507220647 16 44 1.6 3.2 0.00 0.00 20.98 82 1014.7
20260507220147 16 60 1.6 3.2 0.00 0.00 20.98 83 1014.7
20260507215647 16 45 1.6 1.6 0.00 1.96 20.98 83 1014.6
20260507215147 15 70 0.0 1.6 0.00 1.96 20.98 85 1014.5
20260507214647 16 40 1.6 3.2 0.00 1.96 20.98 86 1014.6
20260507214147 16 46 1.6 1.6 0.00 1.96 20.98 86 1014.7
20260507213647 16 67 1.6 1.6 0.00 1.96 20.98 87 1014.7
20260507213147 16 56 1.6 1.6 0.00 1.96 20.98 88 1014.5
20260507212647 16 46 1.6 1.6 0.00 1.96 20.98 88 1014.7
20260507211647 16 39 3.2 3.2 0.00 1.96 20.98 88 1014.5
20260507211147 16 32 0.0 0.0 0.00 1.96 20.98 87 1014.5
20260507210647 16 36 3.2 3.2 0.00 1.96 20.98 87 1014.6
20260507210147 16 49 1.6 3.2 0.00 1.96 20.98 87 1014.4
20260507205647 16 68 8.0 9.7 0.00 1.96 20.98 87 1014.4
20260507205147 16 42 1.6 1.6 0.00 1.96 20.98 87 1014.6
20260507204647 16 38 1.6 1.6 0.00 1.96 20.98 87 1014.6
20260507204147 16 96 3.2 4.8 0.00 1.96 20.98 87 1014.6
20260507203647 16 80 3.2 4.8 0.00 1.96 20.98 87 1014.5
20260507203147 16 52 3.2 3.2 0.00 1.96 20.98 87 1014.3
20260507202647 16 61 1.6 1.6 0.00 1.96 20.98 86 1014.4
20260507202147 16 31 4.8 11.3 0.00 1.96 20.98 86 1014.5
20260507201647 16 28 6.4 9.7 0.00 1.96 20.98 87 1014.5
20260507201147 16 356 1.6 3.2 0.00 1.96 20.98 87 1014.4
20260507200647 15 350 6.4 8.0 0.00 1.96 20.98 87 1014.5
20260507200147 15 344 3.2 3.2 0.00 1.96 20.98 87 1014.6
20260507195647 15 11 3.2 3.2 0.00 1.96 20.98 87 1014.4
20260507195147 15 34 1.6 3.2 0.00 1.96 20.98 87 1014.4
20260507194647 15 34 3.2 3.2 0.00 1.96 20.98 89 1014.1
20260507194147 15 358 3.2 4.8 0.00 1.96 20.98 90 1013.9
20260507193647 15 90 4.8 8.0 0.00 1.96 20.98 90 1013.8
20260507193147 15 343 1.6 3.2 0.00 1.96 20.98 91 1013.7
20260507192647 15 71 8.0 11.3 0.00 1.96 20.98 92 1013.6
20260507192147 15 47 1.6 1.6 0.00 1.96 20.98 93 1013.4
20260507191647 15 68 4.8 8.0 0.00 1.96 20.98 93 1013.3
20260507191147 15 89 6.4 8.0 0.00 1.96 20.98 93 1013.3
20260507190647 15 55 6.4 9.7 0.00 1.96 20.98 94 1013.2
20260507190147 15 76 8.0 9.7 0.00 1.96 20.98 94 1013.4
20260507185647 15 33 3.2 4.8 0.00 1.96 20.98 94 1013.3
20260507185147 14 48 3.2 4.8 0.00 1.96 20.98 94 1013.3
20260507184647 14 66 3.2 4.8 0.00 1.96 20.98 94 1013.2
20260507183753 14 29 6.4 8.0 0.18 1.96 20.98 95 1013.3
20260507182556 15 22 4.8 8.0 0.00 1.93 20.98 95 1013.0
20260507182056 15 12 3.2 3.2 0.13 1.93 20.98 95 1013.0
20260507181420 15 344 8.0 12.9 0.41 1.93 20.98 95 1013.1
20260507180920 15 333 6.4 8.0 0.79 1.91 20.98 95 1012.9
20260507180420 15 11 3.2 4.8 0.79 1.85 20.98 95 1012.6
20260507175920 15 359 4.8 4.8 0.79 1.80 20.98 95 1012.7
20260507174534 15 357 4.8 8.0 1.19 1.65 20.98 94 1012.7
20260507174034 15 321 6.4 8.0 1.32 1.60 20.98 94 1012.8
20260507173534 15 352 3.2 3.2 0.79 1.47 20.98 94 1012.6
20260507173034 16 318 4.8 8.0 0.36 1.37 20.98 94 1012.6
20260507172534 16 43 1.6 1.6 0.30 1.35 20.98 94 1012.7
20260507172034 16 49 3.2 3.2 0.41 1.32 20.98 94 1012.7
20260507171534 16 56 0.0 0.0 0.61 1.30 20.98 94 1012.5
20260507171034 16 54 3.2 4.8 0.61 1.24 20.98 94 1012.3
20260507170534 16 86 3.2 3.2 0.48 1.19 20.98 94 1012.3
20260507170034 16 76 4.8 8.0 0.30 1.14 20.98 93 1012.3
20260507165534 17 46 3.2 4.8 0.13 1.12 20.98 93 1012.5
20260507165034 16 59 3.2 4.8 0.00 1.09 20.98 93 1012.2
20260507164534 17 69 3.2 3.2 0.00 1.09 20.98 93 1012.4
20260507164034 17 73 3.2 3.2 0.00 1.09 20.98 93 1012.3
20260507163534 16 77 4.8 4.8 0.00 1.09 20.98 92 1012.1
20260507163034 16 66 0.0 0.0 0.00 1.09 20.98 92 1012.0
20260507162534 16 71 6.4 8.0 0.00 1.09 20.98 92 1012.0
20260507162034 16 85 3.2 3.2 0.00 1.09 20.98 92 1012.0
20260507161534 16 91 1.6 3.2 0.18 1.09 20.98 92 1012.0
20260507161034 16 105 6.4 8.0 0.18 1.09 20.98 92 1011.9
20260507160534 16 86 8.0 9.7 0.13 1.07 20.98 92 1011.8
20260507160034 16 77 3.2 8.0 0.13 1.07 20.98 92 1011.6
20260507155534 16 90 8.0 12.9 0.18 1.04 20.98 92 1012.0
20260507155034 16 118 6.4 9.7 0.18 1.04 20.98 93 1012.0
20260507154534 16 75 4.8 4.8 0.18 1.02 20.98 93 1011.8
20260507154034 17 119 1.6 1.6 0.79 1.02 20.98 93 1011.8
20260507153534 17 85 4.8 11.3 1.98 0.99 20.98 93 1011.6
20260507153034 17 105 6.4 8.0 1.80 0.89 20.98 92 1011.5
20260507152534 17 87 6.4 9.7 0.89 0.69 20.98 91 1011.8
20260507152034 17 110 8.0 11.3 0.30 0.58 20.98 89 1011.7
20260507151534 17 85 11.3 14.5 0.00 0.53 20.98 88 1012.0
20260507151034 17 79 11.3 12.9 0.00 0.53 20.98 88 1011.8
20260507150534 18 86 8.0 16.1 0.00 0.53 20.98 89 1011.8
20260507150034 18 110 6.4 9.7 0.00 0.53 20.98 89 1011.6
20260507145534 17 100 3.2 4.8 0.00 0.53 20.98 90 1011.8
20260507145034 18 72 3.2 3.2 0.00 0.53 20.98 90 1011.6
20260507144534 17 63 6.4 8.0 0.00 0.53 20.98 90 1011.8
20260507144034 17 69 8.0 9.7 0.18 0.53 20.98 91 1011.5
20260507143534 17 81 6.4 8.0 0.18 0.53 20.98 91 1011.6
20260507143034 17 97 6.4 9.7 0.00 0.51 20.98 91 1011.7
20260507142534 17 109 3.2 4.8 0.00 0.51 20.98 92 1011.6
20260507142034 17 72 3.2 4.8 0.00 0.51 20.98 92 1011.7
20260507141534 17 73 1.6 3.2 0.00 0.51 20.98 92 1011.8
20260507141034 17 78 1.6 4.8 0.13 0.51 20.98 92 1011.7
20260507140534 17 78 1.6 3.2 0.13 0.51 20.98 93 1011.7
20260507140034 17 62 0.0 0.0 0.00 0.48 20.98 93 1011.6
20260507135534 17 20 4.8 4.8 0.00 0.48 20.98 93 1011.6
20260507135034 17 36 1.6 1.6 0.00 0.48 20.98 93 1011.7
20260507134534 17 35 1.6 1.6 0.30 0.48 20.98 93 1011.7
20260507134034 17 45 1.6 1.6 0.48 0.48 20.98 92 1011.7
20260507133534 16 73 1.6 3.2 0.66 0.43 20.98 92 1011.9
20260507133034 17 115 4.8 8.0 0.61 0.41 20.98 92 1012.2
20260507132534 17 83 1.6 3.2 0.61 0.36 20.98 92 1012.3
20260507132034 17 85 6.4 9.7 0.61 0.30 20.98 91 1012.4
20260507131534 17 78 3.2 4.8 0.61 0.25 20.98 91 1012.1
20260507131034 17 87 9.7 14.5 0.48 0.20 20.98 90 1012.4
20260507130534 17 61 8.0 12.9 0.18 0.15 20.98 89 1012.4
20260507130034 17 63 3.2 4.8 0.13 0.13 20.98 89 1012.4
20260507125534 17 56 8.0 9.7 0.30 0.13 20.98 89 1012.2
20260507125034 17 63 9.7 12.9 0.48 0.10 20.98 88 1012.4
20260507124534 18 83 3.2 3.2 0.48 0.08 20.98 87 1012.5
20260507124034 18 47 8.0 9.7 0.18 0.03 20.98 86 1012.4
20260507123534 18 28 8.0 14.5 0.00 0.00 20.98 85 1012.4
20260507123034 18 64 3.2 3.2 0.00 0.00 20.98 83 1012.6
20260507122534 18 68 12.9 20.9 0.00 0.00 20.98 81 1012.6
20260507122034 18 60 6.4 9.7 0.00 0.00 20.98 81 1012.5
20260507121534 18 75 4.8 9.7 0.00 0.00 20.98 81 1012.4
20260507121034 18 46 4.8 9.7 0.00 0.00 20.98 80 1012.2
20260507120534 18 98 4.8 4.8 0.00 0.00 20.98 80 1012.5
20260507120034 18 82 3.2 8.0 0.00 0.00 20.98 80 1012.5
20260507115534 18 54 9.7 12.9 0.00 0.00 20.98 80 1012.8
20260507115034 18 73 8.0 14.5 0.00 0.00 20.98 79 1012.5
20260507114534 18 72 8.0 12.9 0.00 0.00 20.98 78 1012.8
20260507114034 18 62 1.6 4.8 0.00 0.00 20.98 78 1012.7
20260507113534 18 56 8.0 9.7 0.00 0.00 20.98 78 1012.5
20260507113034 18 39 3.2 4.8 0.00 0.00 20.98 78 1012.7
20260507112534 19 63 11.3 14.5 0.00 0.00 20.98 77 1012.6
20260507112034 19 60 0.0 3.2 0.00 0.00 20.98 77 1012.6
20260507111534 19 82 9.7 16.1 0.00 0.00 20.98 77 1012.8
20260507111034 19 128 4.8 11.3 0.00 0.00 20.98 78 1013.0
20260507110534 18 94 9.7 12.9 0.00 0.00 20.98 78 1012.9
20260507110034 19 76 8.0 9.7 0.00 0.00 20.98 78 1012.8
20260507105534 19 74 3.2 8.0 0.00 0.00 20.98 78 1012.9
20260507105034 18 35 3.2 3.2 0.00 0.00 20.98 79 1012.9
20260507104534 18 69 3.2 4.8 0.00 0.00 20.98 80 1013.3
20260507104034 18 64 11.3 14.5 0.00 0.00 20.98 80 1013.1
20260507103534 18 86 9.7 12.9 0.00 0.00 20.98 80 1013.1
20260507103034 18 63 4.8 8.0 0.00 0.00 20.98 80 1013.1
20260507102534 18 47 3.2 8.0 0.00 0.00 20.98 80 1012.9
20260507102034 18 99 11.3 16.1 0.00 0.00 20.98 81 1013.2
20260507101534 18 63 9.7 14.5 0.00 0.00 20.98 81 1013.0
20260507101034 18 76 11.3 17.7 0.00 0.00 20.98 81 1013.1